GEOSCAN 6 (RS92S6)

Last updated on Mon Nov 03 2025 00:03:22 GMT+0000 (Coordinated Universal Time)

1 64879U 25155D 25306.18761565 .00012098 00000+0 49794-3 0 9992 2 64879 97.4272 270.2212 0006162 258.2673 101.7873 15.24260409 46113
UTC large
Height (km)
Speed (km/s)
/
Latitude / Longitude
Inclination (degrees)
Orbital Period (minutes)
Azimuth
Elevation
Range (km)
Doppler Factor

Next 0 passes for location: London (51.5072 / 0.1276)

Sorry there are no passes over London.